TimeCST,TemperatureF,Dew PointF,Humidity,Sea Level PressureIn,VisibilityMPH,Wind Direction,Wind SpeedMPH,Gust SpeedMPH,PrecipitationIn,Events,Conditions,WindDirDegrees,DateUTC
12:41 AM,37.4,35.6,93,30.02,4.0,NE,8.1,-,0.13,Rain,Heavy Rain,50,2013-11-26 06:41:00
12:53 AM,39.0,36.0,89,30.05,4.0,NE,9.2,-,0.16,Rain,Light Rain,50,2013-11-26 06:53:00
1:11 AM,37.4,35.6,93,30.04,2.5,NE,11.5,-,0.07,Rain,Heavy Rain,50,2013-11-26 07:11:00
1:53 AM,37.9,37.0,97,30.07,2.5,NNE,6.9,-,0.26,Rain,Heavy Rain,30,2013-11-26 07:53:00
2:18 AM,37.4,35.6,93,30.06,5.0,North,8.1,-,0.06,Rain,Light Rain,10,2013-11-26 08:18:00
2:34 AM,37.4,35.6,93,30.05,2.0,NNE,9.2,-,0.13,Rain,Heavy Rain,20,2013-11-26 08:34:00
2:53 AM,37.9,36.0,93,30.07,3.0,North,12.7,-,0.16,Rain,Rain,350,2013-11-26 08:53:00
3:19 AM,37.4,35.6,93,30.06,2.0,North,11.5,-,0.04,Rain,Rain,10,2013-11-26 09:19:00
3:36 AM,37.4,35.6,93,30.06,5.0,NNE,8.1,18.4,0.07,Rain,Light Rain,20,2013-11-26 09:36:00
3:53 AM,37.0,35.1,93,30.05,3.0,NNE,11.5,-,0.08,Rain,Light Rain,30,2013-11-26 09:53:00
4:20 AM,37.4,35.6,93,30.06,5.0,NNE,15.0,24.2,0.01,Rain,Light Rain,20,2013-11-26 10:20:00
4:43 AM,37.4,35.6,93,30.02,4.0,ENE,15.0,-,0.02,Rain,Light Rain,60,2013-11-26 10:43:00
4:53 AM,37.9,35.1,89,30.03,5.0,ENE,11.5,20.7,0.02,Rain,Light Rain,60,2013-11-26 10:53:00
5:53 AM,39.0,37.0,93,29.99,4.0,ENE,12.7,18.4,0.11,Rain,Heavy Rain,70,2013-11-26 11:53:00
6:16 AM,39.2,37.4,93,29.98,2.5,East,11.5,17.3,0.11,Rain,Heavy Rain,80,2013-11-26 12:16:00
6:53 AM,39.0,37.0,93,29.99,2.0,East,8.1,17.3,0.32,Rain,Heavy Rain,90,2013-11-26 12:53:00
7:28 AM,39.2,37.4,93,29.97,3.0,East,11.5,-,0.15,Rain,Rain,90,2013-11-26 13:28:00
7:41 AM,39.2,37.4,93,29.95,2.5,East,12.7,21.9,0.19,Rain,Rain,90,2013-11-26 13:41:00
7:48 AM,39.2,37.4,93,29.94,3.0,East,11.5,19.6,0.21,Rain,Rain,90,2013-11-26 13:48:00
7:53 AM,39.9,37.9,93,29.95,3.0,East,12.7,20.7,0.22,Rain,Light Rain,80,2013-11-26 13:53:00
8:11 AM,39.2,37.4,93,29.94,2.0,East,12.7,19.6,0.05,Rain,Heavy Rain,80,2013-11-26 14:11:00
9:53 AM,42.1,39.9,92,29.86,2.0,East,12.7,23.0,0.41,Rain,Heavy Rain,80,2013-11-26 15:53:00
10:33 AM,44.6,42.8,93,29.84,3.0,East,10.4,19.6,0.18,Rain,Rain,80,2013-11-26 16:33:00
10:53 AM,45.0,43.0,93,29.83,5.0,ENE,10.4,-,0.20,Rain,Light Rain,60,2013-11-26 16:53:00
11:02 AM,44.6,42.8,93,29.83,6.0,ENE,3.5,-,0.00,Rain,Light Rain,70,2013-11-26 17:02:00
11:14 AM,46.4,42.8,87,29.84,8.0,NNE,5.8,-,0.00,Rain,Light Rain,30,2013-11-26 17:14:00
11:53 AM,46.9,45.0,93,29.82,6.0,North,5.8,-,0.01,Rain,Light Rain,360,2013-11-26 17:53:00
12:53 PM,46.9,45.0,93,29.81,3.0,NNW,5.8,-,0.01,Rain,Light Rain,340,2013-11-26 18:53:00
12:58 PM,46.4,44.6,93,29.80,2.5,NNW,8.1,-,0.00,Rain,Light Rain,340,2013-11-26 18:58:00
1:31 PM,46.4,44.6,93,29.81,1.8,NW,8.1,-,0.00,,Light Drizzle,320,2013-11-26 19:31:00
1:53 PM,46.9,45.0,93,29.81,1.5,NNW,8.1,-,0.01,,Light Drizzle,340,2013-11-26 19:53:00
2:23 PM,44.6,44.6,100,29.78,2.0,North,11.5,-,0.00,,Light Drizzle,360,2013-11-26 20:23:00
2:42 PM,44.6,44.6,100,29.77,5.0,North,12.7,-,0.00,,Light Drizzle,360,2013-11-26 20:42:00
2:53 PM,46.0,44.1,93,29.78,3.0,NNE,8.1,-,0.00,,Overcast,20,2013-11-26 20:53:00
3:53 PM,45.0,44.1,97,29.81,5.0,NNW,13.8,-,N/A,,Overcast,340,2013-11-26 21:53:00
4:53 PM,45.0,43.0,93,29.81,5.0,North,10.4,-,N/A,,Overcast,350,2013-11-26 22:53:00
5:53 PM,44.1,42.1,93,29.83,6.0,North,12.7,18.4,0.00,,Light Drizzle,350,2013-11-26 23:53:00
6:53 PM,42.1,39.9,92,29.86,10.0,North,13.8,-,0.00,,Overcast,350,2013-11-27 00:53:00
7:53 PM,41.0,39.9,96,29.87,8.0,NNW,8.1,-,N/A,,Overcast,340,2013-11-27 01:53:00
8:53 PM,39.9,37.9,93,29.85,8.0,North,12.7,-,N/A,,Overcast,350,2013-11-27 02:53:00
9:53 PM,39.0,36.0,89,29.88,10.0,NNW,19.6,25.3,N/A,,Overcast,340,2013-11-27 03:53:00
10:53 PM,39.0,36.0,89,29.88,10.0,NNW,15.0,25.3,0.00,Rain,Light Rain,340,2013-11-27 04:53:00
11:53 PM,37.0,35.1,93,29.89,7.0,North,18.4,26.5,0.03,Rain,Light Rain,350,2013-11-27 05:53:00